Current weather by "City, St" or "zip code"  
 
Advertise Here

Current Conditions: Lee County Airport, VA

Fog/Mist


54.0 F

Last Updated on Feb 28 2021, 6:55 am EST
Humidity: 100%
Wind Speed: N 0.0 mph
Barometer 30.07 in
Dewpoint: 53.6 F
Visibility: 2.00 mi
Precip: --
Heat Index: NA
Wind Chill: NA
Current conditions at:

Lee County Airport, VA (K0VG)

Lat: 36.65408 Lon: 83.21783

Local Radar Image active severe weather and emergency alerts image image weather storm and storm spotter reports image weather observation monitoring service image
Local
Radar
Active
Alerts
Storm Reports Obs
Monitoring

Sign-up For Email & Text Message Weather Alert Notification Services


Advertise Here

Observation History for Lee County Airport, VA


Time Wind
(mph)
Vis
(mi)
Weather Precip (in) Temperature (F) Relative
Humidity
Wind
Chill
(F)
Heat
Index
(F)
Pressure
Air Dwpt altimeter
(in)
sea level
(mb)
Rmks
6:55 am EST N 0.0 2.00 Fog/Mist -- 54.0 53.6 100% NA NA 30.07 M
5:55 am EST N 0.0 1.00 Fog/Mist -- 54.0 53.6 100% NA NA 30.08 M
4:55 am EST N 0.0 2.00 Fog/Mist -- 54.0 53.6 100% NA NA 30.09 M
3:55 am EST N 0.0 0.50 Fog -- 54.0 53.6 100% NA NA 30.09 M
2:55 am EST N 0.0 4.00 Fog/Mist -- 54.0 53.6 100% NA NA 30.12 M
1:55 am EST N 0.0 4.00 Fog/Mist -- 54.0 53.6 100% NA NA 30.15 M
12:55 am EST N 0.0 1.00 Fog/Mist -- 54.0 53.6 100% NA NA 30.15 M
11:55 pm EST N 0.0 2.50 Thunderstorm in Vicinity Fog/Mist -- 54.0 53.6 100% NA NA 30.17 M
10:55 pm EST N 0.0 2.50 Light Drizzle -- 54.0 53.6 100% NA NA 30.19 M
9:55 pm EST N 0.0 9.00 Overcast -- 54.0 53.6 100% NA NA 30.19 M
8:55 pm EST N 0.0 4.00 Light Drizzle -- 54.0 53.6 100% NA NA 30.19 M
7:55 pm EST N 0.0 9.00 Overcast -- 54.0 53.6 100% NA NA 30.19 M
6:55 pm EST N 0.0 4.00 Fog/Mist -- 54.0 53.6 100% NA NA 30.18 M
5:55 pm EST N 0.0 4.00 Fog/Mist -- 55.0 55.4 100% NA NA 30.17 M
4:55 pm EST N 0.0 3.00 Fog/Mist -- 55.0 55.4 100% NA NA 30.16 M
3:55 pm EST N 0.0 10.00 Overcast -- 55.0 55.4 100% NA NA 30.16 M
2:55 pm EST N 0.0 9.00 Overcast -- 54.0 53.6 100% NA NA 30.15 M
1:55 pm EST N 0.0 9.00 Overcast -- 54.0 53.6 100% NA NA 30.16 M
12:55 pm EST N 0.0 5.00 Light Drizzle -- 52.0 51.8 100% NA NA 30.17 M
11:55 am EST N 0.0 8.00 Mostly Cloudy -- 52.0 51.8 100% NA NA 30.17 M
10:55 am EST N 0.0 5.00 Light Drizzle -- 50.0 50.0 100% NA NA 30.16 M
9:55 am EST N 0.0 2.50 Light Drizzle -- 48.0 48.2 100% NA NA 30.14 M
8:55 am EST N 0.0 2.00 Light Drizzle -- 48.0 48.2 100% NA NA 30.12 M
7:55 am EST N 0.0 1.00 Light Rain -- 46.0 46.4 100% NA NA 30.10 M

Regional Weather Observation


Lee County Airport, VA (K0VG)

Fog/Mist
54.0 F

Middlesboro, Middlesboro-Bell County Airport, KY (K1A6)

Overcast
58.0 F

Morristown Moore-Murrell Airport, TN (KMOR)

Fog/Mist
54.0 F

Wendell H Ford Airport, KY (KCPF)

Overcast
59.0 F

Jackson, Carroll Airport, KY (KJKL)

Light Rain
57.0 F

Wise / Lonesome Pine, VA (KLNP)

Overcast
55.0 F
Advertise Here

Advertise Here